Year,Month,Day,Hour,Minute,Value (Times are PST for temperature in C)
2017,07,09,00,00,16.60
2017,07,09,00,01,16.60
2017,07,09,00,02,16.50
2017,07,09,00,03,16.50
2017,07,09,00,04,16.50
2017,07,09,00,05,16.50
2017,07,09,00,06,16.40
2017,07,09,00,07,16.40
2017,07,09,00,08,16.40
2017,07,09,00,09,16.40
2017,07,09,00,10,16.40
2017,07,09,00,11,16.40
2017,07,09,00,12,16.30
2017,07,09,00,13,16.30
2017,07,09,00,14,16.30
2017,07,09,00,15,16.30
2017,07,09,00,16,16.30
2017,07,09,00,17,16.30
2017,07,09,00,18,16.30
2017,07,09,00,19,16.20
2017,07,09,00,20,16.20
2017,07,09,00,21,16.20
2017,07,09,00,22,16.20
2017,07,09,00,23,16.10
2017,07,09,00,24,16.10
2017,07,09,00,25,16.10
2017,07,09,00,26,16.10
2017,07,09,00,27,16.10
2017,07,09,00,28,16.10
2017,07,09,00,29,16.00
2017,07,09,00,30,16.00
2017,07,09,00,31,16.00
2017,07,09,00,32,15.90
2017,07,09,00,33,15.90
2017,07,09,00,34,15.90
2017,07,09,00,35,15.90
2017,07,09,00,36,15.90
2017,07,09,00,37,15.90
2017,07,09,00,38,15.80
2017,07,09,00,39,15.80
2017,07,09,00,40,15.80
2017,07,09,00,41,15.80
2017,07,09,00,42,15.80
2017,07,09,00,43,15.80
2017,07,09,00,44,15.80
2017,07,09,00,45,15.80
2017,07,09,00,46,15.80
2017,07,09,00,47,15.70
2017,07,09,00,48,15.70
2017,07,09,00,49,15.70
2017,07,09,00,50,15.70
2017,07,09,00,51,15.70
2017,07,09,00,52,15.70
2017,07,09,00,53,15.70
2017,07,09,00,54,15.70
2017,07,09,00,55,15.60
2017,07,09,00,56,15.60
2017,07,09,00,57,15.60
2017,07,09,00,58,15.60
2017,07,09,00,59,15.60
2017,07,09,01,00,15.60
2017,07,09,01,01,15.60
2017,07,09,01,02,15.60
2017,07,09,01,03,15.60
2017,07,09,01,04,15.60
2017,07,09,01,05,15.60
2017,07,09,01,06,15.60
2017,07,09,01,07,15.50
2017,07,09,01,08,15.50
2017,07,09,01,09,15.50
2017,07,09,01,10,15.50
2017,07,09,01,11,15.40
2017,07,09,01,12,15.40
2017,07,09,01,13,15.40
2017,07,09,01,14,15.40
2017,07,09,01,15,15.40
2017,07,09,01,16,15.40
2017,07,09,01,17,15.40
2017,07,09,01,18,15.40
2017,07,09,01,19,15.40
2017,07,09,01,20,15.30
2017,07,09,01,21,15.30
2017,07,09,01,22,15.30
2017,07,09,01,23,15.30
2017,07,09,01,24,15.30
2017,07,09,01,25,15.30
2017,07,09,01,26,15.30
2017,07,09,01,27,15.30
2017,07,09,01,28,15.30
2017,07,09,01,29,15.30
2017,07,09,01,30,15.30
2017,07,09,01,31,15.30
2017,07,09,01,32,15.30
2017,07,09,01,33,15.20
2017,07,09,01,34,15.20
2017,07,09,01,35,15.20
2017,07,09,01,36,15.20
2017,07,09,01,37,15.20
2017,07,09,01,38,15.20
2017,07,09,01,39,15.10
2017,07,09,01,40,15.10
2017,07,09,01,41,15.10
2017,07,09,01,42,15.10
2017,07,09,01,43,15.10
2017,07,09,01,44,15.10
2017,07,09,01,45,15.10
2017,07,09,01,46,15.10
2017,07,09,01,47,15.10
2017,07,09,01,48,15.10
2017,07,09,01,49,15.10
2017,07,09,01,50,15.10
2017,07,09,01,51,15.10
2017,07,09,01,52,15.10
2017,07,09,01,53,15.10
2017,07,09,01,54,15.10
2017,07,09,01,55,15.20
2017,07,09,01,56,15.20
2017,07,09,01,57,15.20
2017,07,09,01,58,15.20
2017,07,09,01,59,15.10
2017,07,09,02,00,15.10
2017,07,09,02,01,15.10
2017,07,09,02,02,15.10
2017,07,09,02,03,15.10
2017,07,09,02,04,15.10
2017,07,09,02,05,15.20
2017,07,09,02,06,15.20
2017,07,09,02,07,15.20
2017,07,09,02,08,15.20
2017,07,09,02,09,15.20
2017,07,09,02,10,15.20
2017,07,09,02,11,15.20
2017,07,09,02,12,15.20
2017,07,09,02,13,15.20
2017,07,09,02,14,15.20
2017,07,09,02,15,15.20
2017,07,09,02,16,15.20
2017,07,09,02,17,15.20
2017,07,09,02,18,15.20
2017,07,09,02,19,15.20
2017,07,09,02,20,15.20
2017,07,09,02,21,15.20
2017,07,09,02,22,15.20
2017,07,09,02,23,15.20
2017,07,09,02,24,15.20
2017,07,09,02,25,15.20
2017,07,09,02,26,15.10
2017,07,09,02,27,15.20
2017,07,09,02,28,15.10
2017,07,09,02,29,15.10
2017,07,09,02,30,15.10
2017,07,09,02,31,15.10
2017,07,09,02,32,15.10
2017,07,09,02,33,15.10
2017,07,09,02,34,15.10
2017,07,09,02,35,15.10
2017,07,09,02,36,15.10
2017,07,09,02,37,15.10
2017,07,09,02,38,15.10
2017,07,09,02,39,15.00
2017,07,09,02,40,15.00
2017,07,09,02,41,15.00
2017,07,09,02,42,15.00
2017,07,09,02,43,15.00
2017,07,09,02,44,14.90
2017,07,09,02,45,14.90
2017,07,09,02,46,14.90
2017,07,09,02,47,14.90
2017,07,09,02,48,14.90
2017,07,09,02,49,14.90
2017,07,09,02,50,14.90
2017,07,09,02,51,14.90
2017,07,09,02,52,14.90
2017,07,09,02,53,14.90
2017,07,09,02,54,14.80
2017,07,09,02,55,14.80
2017,07,09,02,56,14.80
2017,07,09,02,57,14.80
2017,07,09,02,58,14.80
2017,07,09,02,59,14.80
2017,07,09,03,00,14.80
2017,07,09,03,01,14.80
2017,07,09,03,02,14.80
2017,07,09,03,03,14.80
2017,07,09,03,04,14.80
2017,07,09,03,05,14.80
2017,07,09,03,06,14.80
2017,07,09,03,07,14.80
2017,07,09,03,08,14.80
2017,07,09,03,09,14.80
2017,07,09,03,10,14.80
2017,07,09,03,11,14.80
2017,07,09,03,12,14.70
2017,07,09,03,13,14.70
2017,07,09,03,14,14.70
2017,07,09,03,15,14.70
2017,07,09,03,16,14.70
2017,07,09,03,17,14.70
2017,07,09,03,18,14.70
2017,07,09,03,19,14.80
2017,07,09,03,20,14.80
2017,07,09,03,21,14.80
2017,07,09,03,22,14.80
2017,07,09,03,23,14.80
2017,07,09,03,24,14.80
2017,07,09,03,25,14.80
2017,07,09,03,26,14.80
2017,07,09,03,27,14.80
2017,07,09,03,28,14.80
2017,07,09,03,29,14.80
2017,07,09,03,30,14.90
2017,07,09,03,31,14.90
2017,07,09,03,32,14.90
2017,07,09,03,33,14.90
2017,07,09,03,34,14.90
2017,07,09,03,35,14.90
2017,07,09,03,36,14.90
2017,07,09,03,37,14.90
2017,07,09,03,38,14.90
2017,07,09,03,39,14.90
2017,07,09,03,40,14.90
2017,07,09,03,41,14.90
2017,07,09,03,42,14.80
2017,07,09,03,43,14.80
2017,07,09,03,44,14.80
2017,07,09,03,45,14.80
2017,07,09,03,46,14.80
2017,07,09,03,47,14.80
2017,07,09,03,48,14.80
2017,07,09,03,49,14.80
2017,07,09,03,50,14.80
2017,07,09,03,51,14.80
2017,07,09,03,52,14.80
2017,07,09,03,53,14.80
2017,07,09,03,54,14.80
2017,07,09,03,55,14.80
2017,07,09,03,56,14.80
2017,07,09,03,57,14.80
2017,07,09,03,58,14.80
2017,07,09,03,59,14.80
2017,07,09,04,00,14.80
2017,07,09,04,01,14.80
2017,07,09,04,02,14.80
2017,07,09,04,03,14.80
2017,07,09,04,04,14.80
2017,07,09,04,08,14.80
2017,07,09,04,09,14.80
2017,07,09,04,10,14.80
2017,07,09,04,11,14.80
2017,07,09,04,12,14.80
2017,07,09,04,13,14.80
2017,07,09,04,14,14.80
2017,07,09,04,15,14.80
2017,07,09,04,16,14.80
2017,07,09,04,17,14.80
2017,07,09,04,18,14.80
2017,07,09,04,19,14.80
2017,07,09,04,20,14.80
2017,07,09,04,21,14.80
2017,07,09,04,22,14.80
2017,07,09,04,23,14.80
2017,07,09,04,24,14.80
2017,07,09,04,25,14.80
2017,07,09,04,26,14.80
2017,07,09,04,27,14.80
2017,07,09,04,28,14.80
2017,07,09,04,29,14.80
2017,07,09,04,30,14.80
2017,07,09,04,31,14.80
2017,07,09,04,32,14.80
2017,07,09,04,33,14.80
2017,07,09,04,34,14.80
2017,07,09,04,35,14.80
2017,07,09,04,36,14.80
2017,07,09,04,37,14.70
2017,07,09,04,38,14.70
2017,07,09,04,39,14.70
2017,07,09,04,40,14.70
2017,07,09,04,41,14.70
2017,07,09,04,42,14.70
2017,07,09,04,43,14.70
2017,07,09,04,44,14.70
2017,07,09,04,45,14.70
2017,07,09,04,46,14.70
2017,07,09,04,47,14.70
2017,07,09,04,48,14.70
2017,07,09,04,49,14.70
2017,07,09,04,50,14.70
2017,07,09,04,51,14.70
2017,07,09,04,52,14.70
2017,07,09,04,53,14.70
2017,07,09,04,54,14.70
2017,07,09,04,55,14.70
2017,07,09,04,56,14.70
2017,07,09,04,57,14.70
2017,07,09,04,58,14.70
2017,07,09,04,59,14.70
2017,07,09,05,00,14.70
2017,07,09,05,01,14.70
2017,07,09,05,02,14.70
2017,07,09,05,03,14.60
2017,07,09,05,04,14.60
2017,07,09,05,05,14.60
2017,07,09,05,06,14.60
2017,07,09,05,07,14.60
2017,07,09,05,08,14.60
2017,07,09,05,09,14.70
2017,07,09,05,10,14.70
2017,07,09,05,11,14.70
2017,07,09,05,12,14.70
2017,07,09,05,13,14.60
2017,07,09,05,14,14.60
2017,07,09,05,15,14.60
2017,07,09,05,16,14.60
2017,07,09,05,17,14.60
2017,07,09,05,18,14.60
2017,07,09,05,19,14.60
2017,07,09,05,20,14.60
2017,07,09,05,21,14.60
2017,07,09,05,22,14.60
2017,07,09,05,23,14.60
2017,07,09,05,24,14.60
2017,07,09,05,25,14.60
2017,07,09,05,26,14.60
2017,07,09,05,27,14.70
2017,07,09,05,28,14.70
2017,07,09,05,29,14.70
2017,07,09,05,30,14.70
2017,07,09,05,31,14.70
2017,07,09,05,32,14.70
2017,07,09,05,33,14.70
2017,07,09,05,34,14.70
2017,07,09,05,35,14.70
2017,07,09,05,36,14.70
2017,07,09,05,37,14.80
2017,07,09,05,38,14.80
2017,07,09,05,39,14.80
2017,07,09,05,40,14.80
2017,07,09,05,41,14.80
2017,07,09,05,42,14.80
2017,07,09,05,43,14.80
2017,07,09,05,44,14.80
2017,07,09,05,45,14.80
2017,07,09,05,46,14.70
2017,07,09,05,47,14.70
2017,07,09,05,48,14.70
2017,07,09,05,49,14.70
2017,07,09,05,50,14.70
2017,07,09,05,51,14.70
2017,07,09,05,52,14.70
2017,07,09,05,53,14.70
2017,07,09,05,54,14.70
2017,07,09,05,55,14.70
2017,07,09,05,56,14.70
2017,07,09,05,57,14.70
2017,07,09,05,58,14.70
2017,07,09,05,59,14.70
2017,07,09,06,00,14.70
2017,07,09,06,01,14.70
2017,07,09,06,02,14.70
2017,07,09,06,03,14.70
2017,07,09,06,04,14.80
2017,07,09,06,05,14.80
2017,07,09,06,06,14.80
2017,07,09,06,07,14.80
2017,07,09,06,08,14.80
2017,07,09,06,09,14.90
2017,07,09,06,10,14.90
2017,07,09,06,11,14.90
2017,07,09,06,12,14.90
2017,07,09,06,13,14.90
2017,07,09,06,14,14.90
2017,07,09,06,15,14.90
2017,07,09,06,16,14.90
2017,07,09,06,17,14.90
2017,07,09,06,18,15.00
2017,07,09,06,19,15.00
2017,07,09,06,20,15.00
2017,07,09,06,21,15.00
2017,07,09,06,22,15.00
2017,07,09,06,23,15.00
2017,07,09,06,24,15.00
2017,07,09,06,25,15.00
2017,07,09,06,26,15.00
2017,07,09,06,27,15.00
2017,07,09,06,28,15.00
2017,07,09,06,29,15.00
2017,07,09,06,30,15.00
2017,07,09,06,31,15.10
2017,07,09,06,32,15.10
2017,07,09,06,33,15.10
2017,07,09,06,34,15.10
2017,07,09,06,35,15.10
2017,07,09,06,36,15.10
2017,07,09,06,37,15.20
2017,07,09,06,38,15.20
2017,07,09,06,39,15.30
2017,07,09,06,40,15.30
2017,07,09,06,41,15.40
2017,07,09,06,42,15.40
2017,07,09,06,43,15.50
2017,07,09,06,44,15.60
2017,07,09,06,45,15.60
2017,07,09,06,46,15.70
2017,07,09,06,47,15.80
2017,07,09,06,48,15.80
2017,07,09,06,49,15.90
2017,07,09,06,50,15.90
2017,07,09,06,51,15.90
2017,07,09,06,52,16.00
2017,07,09,06,53,16.10
2017,07,09,06,54,16.10
2017,07,09,06,55,16.20
2017,07,09,06,56,16.30
2017,07,09,06,57,16.30
2017,07,09,06,58,16.40
2017,07,09,06,59,16.50
2017,07,09,07,00,16.50
2017,07,09,07,01,16.60
2017,07,09,07,02,16.70
2017,07,09,07,03,16.70
2017,07,09,07,04,16.80
2017,07,09,07,05,16.90
2017,07,09,07,06,16.90
2017,07,09,07,07,17.00
2017,07,09,07,08,17.00
2017,07,09,07,09,17.10
2017,07,09,07,10,17.10
2017,07,09,07,11,17.20
2017,07,09,07,12,17.20
2017,07,09,07,13,17.20
2017,07,09,07,14,17.30
2017,07,09,07,15,17.30
2017,07,09,07,16,17.30
2017,07,09,07,17,17.30
2017,07,09,07,18,17.40
2017,07,09,07,19,17.40
2017,07,09,07,20,17.50
2017,07,09,07,21,17.50
2017,07,09,07,22,17.60
2017,07,09,07,23,17.60
2017,07,09,07,24,17.60
2017,07,09,07,25,17.70
2017,07,09,07,26,17.70
2017,07,09,07,27,17.70
2017,07,09,07,28,17.70
2017,07,09,07,29,17.70
2017,07,09,07,30,17.70
2017,07,09,07,31,17.80
2017,07,09,07,32,17.80
2017,07,09,07,33,17.80
2017,07,09,07,34,17.80
2017,07,09,07,35,17.80
2017,07,09,07,36,17.80
2017,07,09,07,37,17.80
2017,07,09,07,38,17.80
2017,07,09,07,39,17.80
2017,07,09,07,40,17.80
2017,07,09,07,41,17.80
2017,07,09,07,42,17.90
2017,07,09,07,43,17.90
2017,07,09,07,44,17.90
2017,07,09,07,45,18.00
2017,07,09,07,46,18.00
2017,07,09,07,47,18.10
2017,07,09,07,48,18.10
2017,07,09,07,49,18.10
2017,07,09,07,50,18.20
2017,07,09,07,51,18.20
2017,07,09,07,52,18.30
2017,07,09,07,53,18.30
2017,07,09,07,54,18.30
2017,07,09,07,55,18.40
2017,07,09,07,56,18.50
2017,07,09,07,57,18.50
2017,07,09,07,58,18.60
2017,07,09,07,59,18.60
2017,07,09,08,00,18.60
2017,07,09,08,01,18.70
2017,07,09,08,02,18.70
2017,07,09,08,03,18.70
2017,07,09,08,04,18.70
2017,07,09,08,05,18.70
2017,07,09,08,06,18.70
2017,07,09,08,07,18.70
2017,07,09,08,08,18.70
2017,07,09,08,09,18.80
2017,07,09,08,10,18.80
2017,07,09,08,11,18.80
2017,07,09,08,12,18.80
2017,07,09,08,13,18.80
2017,07,09,08,14,18.80
2017,07,09,08,15,18.80
2017,07,09,08,16,18.80
2017,07,09,08,17,18.80
2017,07,09,08,18,18.80
2017,07,09,08,19,18.80
2017,07,09,08,20,18.80
2017,07,09,08,21,18.70
2017,07,09,08,22,18.70
2017,07,09,08,23,18.70
2017,07,09,08,24,18.70
2017,07,09,08,25,18.70
2017,07,09,08,26,18.70
2017,07,09,08,27,18.70
2017,07,09,08,28,18.70
2017,07,09,08,29,18.80
2017,07,09,08,30,18.80
2017,07,09,08,31,18.80
2017,07,09,08,32,18.90
2017,07,09,08,33,18.90
2017,07,09,08,34,18.90
2017,07,09,08,35,19.00
2017,07,09,08,36,19.10
2017,07,09,08,37,19.10
2017,07,09,08,38,19.10
2017,07,09,08,39,19.20
2017,07,09,08,40,19.20
2017,07,09,08,41,19.20
2017,07,09,08,42,19.20
2017,07,09,08,43,19.20
2017,07,09,08,44,19.30
2017,07,09,08,45,19.30
2017,07,09,08,46,19.30
2017,07,09,08,47,19.30
2017,07,09,08,48,19.40
2017,07,09,08,49,19.40
2017,07,09,08,50,19.50
2017,07,09,08,51,19.60
2017,07,09,08,52,19.60
2017,07,09,08,53,19.70
2017,07,09,08,54,19.70
2017,07,09,08,55,19.80
2017,07,09,08,56,19.80
2017,07,09,08,57,19.90
2017,07,09,08,58,19.90
2017,07,09,08,59,20.00
2017,07,09,09,00,20.00
2017,07,09,09,01,20.10
2017,07,09,09,02,20.20
2017,07,09,09,03,20.20
2017,07,09,09,04,20.30
2017,07,09,09,05,20.30
2017,07,09,09,06,20.40
2017,07,09,09,07,20.40
2017,07,09,09,08,20.40
2017,07,09,09,09,20.40
2017,07,09,09,10,20.50
2017,07,09,09,11,20.50
2017,07,09,09,12,20.50
2017,07,09,09,13,20.50
2017,07,09,09,14,20.50
2017,07,09,09,15,20.50
2017,07,09,09,16,20.50
2017,07,09,09,17,20.50
2017,07,09,09,18,20.60
2017,07,09,09,19,20.60
2017,07,09,09,20,20.60
2017,07,09,09,21,20.70
2017,07,09,09,22,20.70
2017,07,09,09,23,20.70
2017,07,09,09,24,20.80
2017,07,09,09,25,20.80
2017,07,09,09,26,20.80
2017,07,09,09,27,20.90
2017,07,09,09,28,20.90
2017,07,09,09,29,21.00
2017,07,09,09,30,21.00
2017,07,09,09,31,21.10
2017,07,09,09,32,21.10
2017,07,09,09,33,21.20
2017,07,09,09,34,21.20
2017,07,09,09,35,21.20
2017,07,09,09,36,21.30
2017,07,09,09,37,21.30
2017,07,09,09,38,21.30
2017,07,09,09,39,21.40
2017,07,09,09,40,21.40
2017,07,09,09,41,21.50
2017,07,09,09,42,21.50
2017,07,09,09,43,21.60
2017,07,09,09,44,21.70
2017,07,09,09,45,21.80
2017,07,09,09,46,21.80
2017,07,09,09,47,21.90
2017,07,09,09,48,22.00
2017,07,09,09,49,22.10
2017,07,09,09,50,22.10
2017,07,09,09,51,22.20
2017,07,09,09,52,22.30
2017,07,09,09,53,22.40
2017,07,09,09,54,22.40
2017,07,09,09,55,22.40
2017,07,09,09,56,22.40
2017,07,09,09,57,22.50
2017,07,09,09,58,22.50
2017,07,09,09,59,22.60
2017,07,09,10,00,22.60
2017,07,09,10,01,22.60
2017,07,09,10,02,22.60
2017,07,09,10,03,22.60
2017,07,09,10,04,22.60
2017,07,09,10,05,22.60
2017,07,09,10,06,22.60
2017,07,09,10,07,22.60
2017,07,09,10,08,22.70
2017,07,09,10,09,22.70
2017,07,09,10,10,22.70
2017,07,09,10,11,22.60
2017,07,09,10,12,22.50
2017,07,09,10,13,22.40
2017,07,09,10,14,22.30
2017,07,09,10,15,22.20
2017,07,09,10,16,22.20
2017,07,09,10,17,22.20
2017,07,09,10,18,22.10
2017,07,09,10,19,22.10
2017,07,09,10,20,22.00
2017,07,09,10,21,21.90
2017,07,09,10,22,21.90
2017,07,09,10,23,21.80
2017,07,09,10,24,21.70
2017,07,09,10,25,21.50
2017,07,09,10,26,21.40
2017,07,09,10,27,21.20
2017,07,09,10,28,21.10
2017,07,09,10,29,20.90
2017,07,09,10,30,20.70
2017,07,09,10,31,20.50
2017,07,09,10,32,20.40
2017,07,09,10,33,20.30
2017,07,09,10,34,20.20
2017,07,09,10,35,20.10
2017,07,09,10,36,20.00
2017,07,09,10,37,19.90
2017,07,09,10,38,19.80
2017,07,09,10,39,19.80
2017,07,09,10,40,19.80
2017,07,09,10,41,19.80
2017,07,09,10,42,19.80
2017,07,09,10,43,19.70
2017,07,09,10,44,19.70
2017,07,09,10,45,19.60
2017,07,09,10,46,19.60
2017,07,09,10,47,19.60
2017,07,09,10,48,19.70
2017,07,09,10,49,19.80
2017,07,09,10,50,19.80
2017,07,09,10,51,19.90
2017,07,09,10,52,20.00
2017,07,09,10,53,20.10
2017,07,09,10,54,20.20
2017,07,09,10,55,20.20
2017,07,09,10,56,20.20
2017,07,09,10,57,20.10
2017,07,09,10,58,20.10
2017,07,09,10,59,20.10
2017,07,09,11,00,20.10
2017,07,09,11,01,20.10
2017,07,09,11,02,20.20
2017,07,09,11,03,20.20
2017,07,09,11,04,20.30
2017,07,09,11,05,20.30
2017,07,09,11,06,20.40
2017,07,09,11,07,20.40
2017,07,09,11,08,20.30
2017,07,09,11,09,20.30
2017,07,09,11,10,20.20
2017,07,09,11,11,20.10
2017,07,09,11,12,20.00
2017,07,09,11,13,19.90
2017,07,09,11,14,19.90
2017,07,09,11,15,19.90
2017,07,09,11,16,19.80
2017,07,09,11,17,19.80
2017,07,09,11,18,19.80
2017,07,09,11,19,19.80
2017,07,09,11,20,19.80
2017,07,09,11,21,19.80
2017,07,09,11,22,19.80
2017,07,09,11,23,19.80
2017,07,09,11,24,19.80
2017,07,09,11,25,19.80
2017,07,09,11,26,19.80
2017,07,09,11,27,19.80
2017,07,09,11,28,19.80
2017,07,09,11,29,19.80
2017,07,09,11,30,19.90
2017,07,09,11,31,19.90
2017,07,09,11,32,20.00
2017,07,09,11,33,20.00
2017,07,09,11,34,20.10
2017,07,09,11,35,20.20
2017,07,09,11,36,20.20
2017,07,09,11,37,20.30
2017,07,09,11,38,20.40
2017,07,09,11,39,20.50
2017,07,09,11,40,20.50
2017,07,09,11,41,20.60
2017,07,09,11,42,20.60
2017,07,09,11,43,20.60
2017,07,09,11,44,20.70
2017,07,09,11,45,20.70
2017,07,09,11,46,20.70
2017,07,09,11,47,20.70
2017,07,09,11,48,20.80
2017,07,09,11,49,20.80
2017,07,09,11,50,20.90
2017,07,09,11,51,21.00
2017,07,09,11,52,21.20
2017,07,09,11,53,21.30
2017,07,09,11,54,21.40
2017,07,09,11,55,21.50
2017,07,09,11,56,21.60
2017,07,09,11,57,21.70
2017,07,09,11,58,21.80
2017,07,09,11,59,21.80
2017,07,09,12,00,21.70
2017,07,09,12,01,21.60
2017,07,09,12,02,21.60
2017,07,09,12,03,21.50
2017,07,09,12,04,21.40
2017,07,09,12,05,21.30
2017,07,09,12,06,21.30
2017,07,09,12,07,21.30
2017,07,09,12,08,21.20
2017,07,09,12,09,21.20
2017,07,09,12,10,21.30
2017,07,09,12,11,21.30
2017,07,09,12,12,21.30
2017,07,09,12,13,21.40
2017,07,09,12,14,21.40
2017,07,09,12,15,21.50
2017,07,09,12,16,21.60
2017,07,09,12,17,21.60
2017,07,09,12,18,21.70
2017,07,09,12,19,21.70
2017,07,09,12,20,21.70
2017,07,09,12,21,21.80
2017,07,09,12,22,21.80
2017,07,09,12,23,21.80
2017,07,09,12,24,21.90
2017,07,09,12,25,22.00
2017,07,09,12,26,22.20
2017,07,09,12,27,22.30
2017,07,09,12,28,22.40
2017,07,09,12,29,22.50
2017,07,09,12,30,22.50
2017,07,09,12,31,22.50
2017,07,09,12,32,22.50
2017,07,09,12,33,22.40
2017,07,09,12,34,22.40
2017,07,09,12,35,22.40
2017,07,09,12,36,22.40
2017,07,09,12,37,22.30
2017,07,09,12,38,22.30
2017,07,09,12,39,22.30
2017,07,09,12,40,22.30
2017,07,09,12,41,22.30
2017,07,09,12,42,22.30
2017,07,09,12,43,22.20
2017,07,09,12,44,22.20
2017,07,09,12,45,22.20
2017,07,09,12,46,22.20
2017,07,09,12,47,22.10
2017,07,09,12,48,22.10
2017,07,09,12,49,22.00
2017,07,09,12,50,22.00
2017,07,09,12,51,22.00
2017,07,09,12,52,22.00
2017,07,09,12,53,22.00
2017,07,09,12,54,22.00
2017,07,09,12,55,22.00
2017,07,09,12,56,21.90
2017,07,09,12,57,21.90
2017,07,09,12,58,21.90
2017,07,09,12,59,21.90
2017,07,09,13,00,21.80
2017,07,09,13,01,21.80
2017,07,09,13,02,21.70
2017,07,09,13,03,21.70
2017,07,09,13,04,21.70
2017,07,09,13,05,21.70
2017,07,09,13,06,21.70
2017,07,09,13,07,21.60
2017,07,09,13,08,21.60
2017,07,09,13,09,21.60
2017,07,09,13,10,21.70
2017,07,09,13,11,21.70
2017,07,09,13,12,21.70
2017,07,09,13,13,21.80
2017,07,09,13,14,21.80
2017,07,09,13,15,21.90
2017,07,09,13,16,21.90
2017,07,09,13,17,22.00
2017,07,09,13,18,22.10
2017,07,09,13,19,22.20
2017,07,09,13,20,22.30
2017,07,09,13,21,22.40
2017,07,09,13,22,22.40
2017,07,09,13,23,22.40
2017,07,09,13,24,22.50
2017,07,09,13,25,22.50
2017,07,09,13,26,22.60
2017,07,09,13,27,22.60
2017,07,09,13,28,22.70
2017,07,09,13,29,22.70
2017,07,09,13,30,22.70
2017,07,09,13,31,22.70
2017,07,09,13,32,22.70
2017,07,09,13,33,22.70
2017,07,09,13,34,22.70
2017,07,09,13,35,22.70
2017,07,09,13,36,22.70
2017,07,09,13,37,22.70
2017,07,09,13,38,22.60
2017,07,09,13,39,22.60
2017,07,09,13,40,22.60
2017,07,09,13,41,22.50
2017,07,09,13,42,22.50
2017,07,09,13,43,22.50
2017,07,09,13,44,22.50
2017,07,09,13,45,22.50
2017,07,09,13,46,22.40
2017,07,09,13,47,22.40
2017,07,09,13,48,22.40
2017,07,09,13,49,22.40
2017,07,09,13,50,22.40
2017,07,09,13,51,22.30
2017,07,09,13,52,22.30
2017,07,09,13,53,22.30
2017,07,09,13,54,22.30
2017,07,09,13,55,22.30
2017,07,09,13,56,22.30
2017,07,09,13,57,22.30
2017,07,09,13,58,22.30
2017,07,09,13,59,22.30
2017,07,09,14,00,22.30
2017,07,09,14,01,22.30
2017,07,09,14,02,22.30
2017,07,09,14,03,22.20
2017,07,09,14,04,22.20
2017,07,09,14,05,22.20
2017,07,09,14,06,22.20
2017,07,09,14,07,22.20
2017,07,09,14,08,22.20
2017,07,09,14,09,22.20
2017,07,09,14,10,22.20
2017,07,09,14,11,22.20
2017,07,09,14,12,22.20
2017,07,09,14,13,22.10
2017,07,09,14,14,22.10
2017,07,09,14,15,22.10
2017,07,09,14,16,22.10
2017,07,09,14,17,22.20
2017,07,09,14,18,22.10
2017,07,09,14,19,22.10
2017,07,09,14,20,22.10
2017,07,09,14,21,22.10
2017,07,09,14,22,22.00
2017,07,09,14,23,22.00
2017,07,09,14,24,22.00
2017,07,09,14,25,22.00
2017,07,09,14,26,22.00
2017,07,09,14,27,22.10
2017,07,09,14,28,22.10
2017,07,09,14,29,22.10
2017,07,09,14,30,22.10
2017,07,09,14,31,22.20
2017,07,09,14,32,22.20
2017,07,09,14,33,22.20
2017,07,09,14,34,22.20
2017,07,09,14,35,22.20
2017,07,09,14,36,22.10
2017,07,09,14,37,22.10
2017,07,09,14,38,22.10
2017,07,09,14,39,22.10
2017,07,09,14,40,22.20
2017,07,09,14,41,22.20
2017,07,09,14,42,22.20
2017,07,09,14,43,22.20
2017,07,09,14,44,22.20
2017,07,09,14,45,22.20
2017,07,09,14,46,22.20
2017,07,09,14,47,22.20
2017,07,09,14,48,22.10
2017,07,09,14,49,22.10
2017,07,09,14,50,22.00
2017,07,09,14,51,22.00
2017,07,09,14,52,21.90
2017,07,09,14,53,21.90
2017,07,09,14,54,21.80
2017,07,09,14,55,21.80
2017,07,09,14,56,21.90
2017,07,09,14,57,21.90
2017,07,09,14,58,21.90
2017,07,09,14,59,22.00
2017,07,09,15,00,22.00
2017,07,09,15,01,22.10
2017,07,09,15,02,22.10
2017,07,09,15,03,22.10
2017,07,09,15,04,22.20
2017,07,09,15,05,22.20
2017,07,09,15,06,22.20
2017,07,09,15,07,22.30
2017,07,09,15,08,22.30
2017,07,09,15,09,22.40
2017,07,09,15,10,22.60
2017,07,09,15,11,22.80
2017,07,09,15,12,22.90
2017,07,09,15,13,23.00
2017,07,09,15,14,23.10
2017,07,09,15,15,23.10
2017,07,09,15,16,23.10
2017,07,09,15,17,23.10
2017,07,09,15,18,23.10
2017,07,09,15,19,23.10
2017,07,09,15,20,23.00
2017,07,09,15,21,23.00
2017,07,09,15,22,22.90
2017,07,09,15,23,22.90
2017,07,09,15,24,22.90
2017,07,09,15,25,23.00
2017,07,09,15,26,23.00
2017,07,09,15,27,23.10
2017,07,09,15,28,23.10
2017,07,09,15,29,23.20
2017,07,09,15,30,23.20
2017,07,09,15,31,23.20
2017,07,09,15,32,23.30
2017,07,09,15,33,23.30
2017,07,09,15,34,23.30
2017,07,09,15,35,23.40
2017,07,09,15,36,23.40
2017,07,09,15,37,23.30
2017,07,09,15,38,23.30
2017,07,09,15,39,23.30
2017,07,09,15,40,23.30
2017,07,09,15,41,23.40
2017,07,09,15,42,23.40
2017,07,09,15,43,23.40
2017,07,09,15,44,23.50
2017,07,09,15,45,23.50
2017,07,09,15,46,23.50
2017,07,09,15,47,23.50
2017,07,09,15,48,23.40
2017,07,09,15,49,23.40
2017,07,09,15,50,23.40
2017,07,09,15,51,23.40
2017,07,09,15,52,23.40
2017,07,09,15,53,23.40
2017,07,09,15,54,23.50
2017,07,09,15,55,23.60
2017,07,09,15,56,23.70
2017,07,09,15,57,23.80
2017,07,09,15,58,23.80
2017,07,09,15,59,23.90
2017,07,09,16,00,23.90
2017,07,09,16,01,24.00
2017,07,09,16,02,24.00
2017,07,09,16,03,24.10
2017,07,09,16,04,24.10
2017,07,09,16,05,24.10
2017,07,09,16,06,24.20
2017,07,09,16,07,24.20
2017,07,09,16,08,24.20
2017,07,09,16,09,24.20
2017,07,09,16,10,24.20
2017,07,09,16,11,24.20
2017,07,09,16,12,24.20
2017,07,09,16,13,24.10
2017,07,09,16,14,24.00
2017,07,09,16,15,23.90
2017,07,09,16,16,23.90
2017,07,09,16,17,23.80
2017,07,09,16,18,23.80
2017,07,09,16,19,23.70
2017,07,09,16,20,23.70
2017,07,09,16,21,23.70
2017,07,09,16,22,23.60
2017,07,09,16,23,23.60
2017,07,09,16,24,23.60
2017,07,09,16,25,23.60
2017,07,09,16,26,23.60
2017,07,09,16,27,23.60
2017,07,09,16,28,23.60
2017,07,09,16,29,23.60
2017,07,09,16,30,23.60
2017,07,09,16,31,23.70
2017,07,09,16,32,23.70
2017,07,09,16,33,23.70
2017,07,09,16,34,23.70
2017,07,09,16,35,23.60
2017,07,09,16,36,23.60
2017,07,09,16,37,23.60
2017,07,09,16,38,23.70
2017,07,09,16,39,23.70
2017,07,09,16,40,23.80
2017,07,09,16,41,23.80
2017,07,09,16,42,23.90
2017,07,09,16,43,23.90
2017,07,09,16,44,24.00
2017,07,09,16,45,24.00
2017,07,09,16,46,24.00
2017,07,09,16,47,24.10
2017,07,09,16,48,24.10
2017,07,09,16,49,24.10
2017,07,09,16,50,24.10
2017,07,09,16,51,24.00
2017,07,09,16,52,24.00
2017,07,09,16,53,23.90
2017,07,09,16,54,23.90
2017,07,09,16,55,23.80
2017,07,09,16,56,23.80
2017,07,09,16,57,23.80
2017,07,09,16,58,23.70
2017,07,09,16,59,23.70
2017,07,09,17,00,23.70
2017,07,09,17,01,23.80
2017,07,09,17,02,23.80
2017,07,09,17,03,23.90
2017,07,09,17,04,24.00
2017,07,09,17,05,24.00
2017,07,09,17,06,24.10
2017,07,09,17,07,24.10
2017,07,09,17,08,24.10
2017,07,09,17,09,24.00
2017,07,09,17,10,23.90
2017,07,09,17,11,23.90
2017,07,09,17,12,23.80
2017,07,09,17,13,23.80
2017,07,09,17,14,23.80
2017,07,09,17,15,23.80
2017,07,09,17,16,23.80
2017,07,09,17,17,23.80
2017,07,09,17,18,23.80
2017,07,09,17,19,23.80
2017,07,09,17,20,23.80
2017,07,09,17,21,23.80
2017,07,09,17,22,23.80